Regional Weather Roundup
Issued by NWS

Home | Current Version | Previous Version | Text Only | Print | Product List | Glossary Off
Versions: 1 2 3 4 5 6 7 8 9 10 11 12 13 14 15 16 17 18 19 20 21 22 23 24 25 26 27 28 29 30 31 32 33 34 35 36 37 38 39 40 41 42 43 44 45 46 47 48 49 50

000
ASUS43 KIND 060409
RWRIN

WEATHER ROUNDUP FOR INDIANA
NATIONAL WEATHER SERVICE INDIANAPOLIS IN
1100 PM EST MON DEC 05 2016

NOTE: "FAIR" INDICATES FEW OR NO CLOUDS BELOW 12,000 FEET WITH NO
SIGNIFICANT WEATHER AND/OR OBSTRUCTIONS TO VISIBILITY.

* - STATION DOES NOT REPORT WEATHER SUCH AS PRECIPITATION OR FOG.

+ - STATION NOT QUALITY CONTROLLED BY THE NATIONAL WEATHER SERVICE.
    USE DATA WITH CAUTION...ESPECIALLY DEWPOINT AND RELATIVE
    HUMIDITY OBSERVATIONS.

INZ001>003-010>013-019-020-060500-
NORTHWEST INDIANA

CITY           SKY/WX    TMP DP  RH WIND       PRES   REMARKS
GARY /AIRPORT/ CLOUDY    34  34  97 E7        29.97F FOG     WCI  28
KNOX *+        CLEAR     32  19  59 E7        29.96F WCI  26
LA PORTE +     CLOUDY   N/A N/A N/A E8        29.98F HAZE
MICHIGAN CITY+ CLOUDY    32  32 100 E6        29.99S WCI  26
MONTICELLO +   PTCLDY    32  29  87 E3        29.93F
RENSSELAER +     N/A     32  32 100 E9        29.94F FOG     WCI  24
VALPARAISO     CLOUDY    30  27  88 E9        29.97F FOG     WCI  22

$$

LMZ046-743>745-060500-
SOUTHERN LAKE MICHIGAN

STATION/POSITION TIME  TEMP    WIND        PRES    WAVE
                       AIR SEA DIR/SP/G            HT
                 (UTC) (F)     (DEG/KT/KT) (MB)    (FT)
BURNS HARBOR     0330   33     100/ 10/ 12 1015.6F

$$

INZ004-005-014>016-021>024-060500-
NORTH CENTRAL INDIANA

CITY           SKY/WX    TMP DP  RH WIND       PRES   REMARKS
GOSHEN         CLEAR     29  25  85 E6        30.00S FOG     WCI  23
LOGANSPORT +   PTCLDY    32  30  93 E7        29.96R WCI  26
PERU/GRISSOM   MOCLDY    32  31  99 E8        29.93F WCI  25
ROCHESTER +    CLEAR     32  32 100 E7        29.96F WCI  26
SOUTH BEND     CLOUDY    31  30  96 E8        30.00S WCI  23
WARSAW +       CLEAR     30  28  93 E7        29.98F WCI  23

$$

INZ006>009-017-018-025>027-060500-
NORTHEAST INDIANA

CITY           SKY/WX    TMP DP  RH WIND       PRES   REMARKS
ANGOLA *+      CLEAR     28  25  86 SE5       29.99F WCI  23
AUBURN +       CLEAR     30  27  86 E5        30.01S FOG     WCI  25
FORT WAYNE     PTCLDY    29  27  92 E8        29.99F WCI  21
HUNTINGTON +   CLEAR     31  29  95 E7        29.97F WCI  24
KENDALLVILLE + CLEAR     30  28  94 E3        29.99F FOG

$$

INZ028-029-035-036-043>045-051>053-060500-
WEST CENTRAL INDIANA

CITY           SKY/WX    TMP DP  RH WIND       PRES   REMARKS
CRAWFORDSVL +  CLEAR     32  32 100 E9        29.91S WCI  24
GREENCASTLE +  CLEAR     32  32 100 E8        29.90F WCI  25
LAFAYETTE      PTCLDY    32  31  96 E8        29.92F WCI  25
TERRE HAUTE    CLEAR     33  29  85 E6        29.89F WCI  28

$$

INZ030>032-037>040-046>048-054>057-064-065-060500-
CENTRAL INDIANA

CITY           SKY/WX    TMP DP  RH WIND       PRES   REMARKS
CP ATTERBURY + CLOUDY    34  32  93 E5        29.92F WCI  30
FISHERS *+     PTCLDY    32  32 100 E3        29.93F
FRANKFORT +    PTCLDY    36  33  89 SE10      29.94S
GREENWOOD *+   CLEAR     35  32  90 E7        29.92F WCI  29
INDIANAPOLIS   MOCLDY    36  31  82 E13       29.91F
-EAGLE CREEK   CLEAR     35  30  82 E8        29.92F WCI  29
KOKOMO +       CLEAR     32  30  92 E9        29.95S WCI  24
MARION +       CLEAR     32  31  94 E8        29.95F WCI  25
MT COMFORT *+  CLEAR     34  30  86 E9        29.93S WCI  26
SHELBYVILLE    CLEAR     35  31  85 E9        29.91F WCI  28
ZIONSVILLE +   CLEAR     32  31  94 E7        29.93F WCI  26

$$

INZ033-034-041-042-049-050-058-059-060500-
EAST CENTRAL INDIANA

CITY           SKY/WX    TMP DP  RH WIND       PRES   REMARKS
MUNCIE         CLEAR     32  29  88 MISG      29.95F

$$

INZ060-061-067>069-081>083-085>088-060500-
SOUTHWEST INDIANA

CITY           SKY/WX    TMP DP  RH WIND       PRES   REMARKS
EVANSVILLE     CLOUDY    42  35  76 E7        29.83F
HUNTINGBURG *+ PTCLDY    42  36  79 E9        29.84F
WASHINGTON +   CLOUDY    40  37  88 E8        29.86F

$$

INZ062-063-066-070>080-084-089>092-060500-
SOUTH CENTRAL AND SOUTHEAST INDIANA

CITY           SKY/WX    TMP DP  RH WIND       PRES   REMARKS
BLOOMINGTON    CLOUDY    39  32  76 E12       29.87F
MADISON *+     CLOUDY    41  34  75 E9        29.90F
NORTH VERNON + CLOUDY    41  39  93 E7        29.92F
SEYMOUR +      CLOUDY    39  36  87 NE5       29.90F

$$





USA.gov is the U.S. government's official web portal to all federal, state and local government web resources and services.